| time (UTC) | temp C | wind direction | speed KPH | gust KPH | rain 1hr cm | rain 24hr cm | rain mn cm | humidity % | barometer mb |
| 20260508034003 | 8 | 254 | 0.0 | 1.6 | 0.00 | 0.08 | 0.00 | 95 | 1013.1 |
| 20260508033503 | 8 | 254 | 0.0 | 1.6 | 0.00 | 0.08 | 0.00 | 94 | 1013.2 |
| 20260508033003 | 9 | 254 | 0.0 | 1.6 | 0.00 | 0.08 | 0.00 | 94 | 1013.1 |
| 20260508032718 | 9 | 254 | 0.0 | 1.6 | 0.00 | 0.08 | 0.00 | 94 | 1013.1 |
| 20260508032219 | 9 | 254 | 0.0 | 3.2 | 0.00 | 0.08 | 0.00 | 94 | 1013.1 |
| 20260508031503 | 9 | 254 | 0.0 | 1.6 | 0.00 | 0.08 | 0.00 | 94 | 1013.1 |
| 20260508031003 | 9 | 254 | 0.0 | 3.2 | 0.00 | 0.08 | 0.00 | 94 | 1013.0 |
| 20260508030503 | 9 | 254 | 0.0 | 3.2 | 0.00 | 0.08 | 0.00 | 94 | 1013.1 |
| 20260508030003 | 9 | 254 | 0.0 | 3.2 | 0.00 | 0.08 | 0.00 | 94 | 1013.0 |
| 20260508025716 | 9 | 254 | 0.0 | 3.2 | 0.00 | 0.08 | 0.00 | 94 | 1013.1 |
| 20260508025003 | 9 | 254 | 0.0 | 1.6 | 0.00 | 0.08 | 0.00 | 94 | 1013.1 |
| 20260508024503 | 9 | 254 | 0.0 | 1.6 | 0.00 | 0.08 | 0.00 | 94 | 1013.1 |
| 20260508024003 | 9 | 254 | 0.0 | 3.2 | 0.00 | 0.08 | 0.00 | 94 | 1013.0 |
| 20260508023503 | 9 | 254 | 1.6 | 3.2 | 0.00 | 0.08 | 0.00 | 94 | 1013.1 |
| 20260508023003 | 9 | 254 | 1.6 | 4.8 | 0.00 | 0.08 | 0.00 | 94 | 1013.1 |
| 20260508022503 | 9 | 253 | 1.6 | 4.8 | 0.00 | 0.08 | 0.00 | 94 | 1013.1 |
| 20260508022003 | 9 | 252 | 1.6 | 4.8 | 0.00 | 0.08 | 0.00 | 94 | 1013.0 |
| 20260508021503 | 9 | 251 | 1.6 | 4.8 | 0.00 | 0.08 | 0.00 | 94 | 1013.0 |
| 20260508021216 | 9 | 252 | 1.6 | 4.8 | 0.00 | 0.08 | 0.00 | 94 | 1012.9 |
| 20260508020503 | 9 | 252 | 1.6 | 4.8 | 0.00 | 0.08 | 0.00 | 93 | 1012.8 |
| 20260508020003 | 9 | 251 | 1.6 | 4.8 | 0.00 | 0.08 | 0.00 | 93 | 1012.8 |
| 20260508015503 | 9 | 235 | 1.6 | 4.8 | 0.00 | 0.08 | 0.00 | 93 | 1012.7 |
| 20260508015003 | 9 | 222 | 1.6 | 4.8 | 0.00 | 0.08 | 0.00 | 93 | 1012.7 |
| 20260508014503 | 9 | 222 | 1.6 | 4.8 | 0.00 | 0.08 | 0.00 | 93 | 1012.6 |
| 20260508014003 | 9 | 222 | 1.6 | 4.8 | 0.00 | 0.08 | 0.00 | 93 | 1012.7 |
| 20260508013719 | 9 | 222 | 1.6 | 4.8 | 0.00 | 0.08 | 0.00 | 93 | 1012.7 |
| 20260508013003 | 9 | 222 | 1.6 | 3.2 | 0.00 | 0.08 | 0.00 | 93 | 1012.7 |
| 20260508012503 | 9 | 222 | 1.6 | 4.8 | 0.00 | 0.08 | 0.00 | 93 | 1012.7 |
| 20260508012003 | 9 | 222 | 1.6 | 4.8 | 0.00 | 0.08 | 0.00 | 93 | 1012.6 |
| 20260508011719 | 9 | 222 | 1.6 | 4.8 | 0.00 | 0.08 | 0.00 | 93 | 1012.6 |
| 20260508011003 | 9 | 215 | 1.6 | 6.4 | 0.00 | 0.08 | 0.00 | 93 | 1012.5 |
| 20260508010503 | 9 | 213 | 1.6 | 6.4 | 0.00 | 0.08 | 0.00 | 93 | 1012.6 |
| 20260508010003 | 10 | 225 | 1.6 | 4.8 | 0.00 | 0.08 | 0.00 | 93 | 1012.7 |
| 20260508005503 | 10 | 245 | 1.6 | 4.8 | 0.00 | 0.08 | 0.00 | 93 | 1012.5 |
| 20260508005216 | 10 | 255 | 1.6 | 4.8 | 0.00 | 0.08 | 0.00 | 93 | 1012.6 |
| 20260508004717 | 10 | 231 | 1.6 | 6.4 | 0.00 | 0.08 | 0.00 | 93 | 1012.5 |
| 20260508004003 | 10 | 217 | 3.2 | 6.4 | 0.00 | 0.08 | 0.00 | 93 | 1012.5 |
| 20260508003719 | 10 | 218 | 3.2 | 6.4 | 0.00 | 0.08 | 0.00 | 93 | 1012.5 |
| 20260508003003 | 10 | 231 | 1.6 | 4.8 | 0.00 | 0.08 | 0.00 | 93 | 1012.5 |
| 20260508002504 | 10 | 231 | 1.6 | 4.8 | 0.00 | 0.08 | 0.00 | 93 | 1012.5 |
| 20260508002004 | 10 | 225 | 1.6 | 4.8 | 0.00 | 0.08 | 0.00 | 93 | 1012.5 |
| 20260508001504 | 10 | 225 | 1.6 | 6.4 | 0.00 | 0.08 | 0.00 | 92 | 1012.5 |
| 20260508001216 | 10 | 225 | 1.6 | 6.4 | 0.00 | 0.08 | 0.00 | 92 | 1012.5 |
| 20260508000503 | 10 | 225 | 1.6 | 4.8 | 0.00 | 0.08 | 0.00 | 92 | 1012.4 |
| 20260508000003 | 10 | 225 | 3.2 | 4.8 | 0.00 | 0.08 | 0.00 | 92 | 1012.5 |
| 20260507235503 | 10 | 225 | 1.6 | 4.8 | 0.00 | 0.08 | 0.00 | 92 | 1012.4 |
| 20260507235003 | 10 | 225 | 1.6 | 4.8 | 0.00 | 0.08 | 0.00 | 92 | 1012.4 |
| 20260507234503 | 10 | 225 | 1.6 | 4.8 | 0.00 | 0.08 | 0.00 | 92 | 1012.2 |
| 20260507234003 | 10 | 224 | 1.6 | 4.8 | 0.00 | 0.08 | 0.00 | 92 | 1012.3 |
| 20260507233503 | 10 | 220 | 1.6 | 4.8 | 0.00 | 0.08 | 0.00 | 92 | 1012.3 |
| 20260507233003 | 10 | 215 | 0.0 | 3.2 | 0.00 | 0.08 | 0.00 | 92 | 1012.2 |
| 20260507232503 | 10 | 215 | 1.6 | 3.2 | 0.00 | 0.08 | 0.00 | 92 | 1012.2 |
| 20260507232003 | 10 | 215 | 0.0 | 3.2 | 0.00 | 0.08 | 0.00 | 92 | 1012.1 |
| 20260507231503 | 10 | 215 | 0.0 | 3.2 | 0.03 | 0.08 | 0.00 | 92 | 1012.2 |
| 20260507231003 | 10 | 215 | 0.0 | 3.2 | 0.03 | 0.08 | 0.00 | 92 | 1012.2 |
| 20260507230717 | 10 | 215 | 0.0 | 3.2 | 0.05 | 0.08 | 0.00 | 92 | 1012.2 |
| 20260507230217 | 10 | 215 | 0.0 | 3.2 | 0.08 | 0.08 | 0.00 | 91 | 1012.2 |
| 20260507225718 | 10 | 215 | 0.0 | 1.6 | 0.08 | 0.08 | 0.08 | 91 | 1012.2 |
| 20260507225219 | 10 | 215 | 0.0 | 1.6 | 0.08 | 0.08 | 0.08 | 91 | 1012.2 |
| 20260507224716 | 10 | 215 | 0.0 | 1.6 | 0.08 | 0.08 | 0.08 | 91 | 1012.2 |
| 20260507224003 | 10 | 215 | 0.0 | 1.6 | 0.08 | 0.08 | 0.08 | 90 | 1012.2 |
| 20260507223503 | 10 | 215 | 0.0 | 1.6 | 0.08 | 0.08 | 0.08 | 90 | 1012.2 |
| 20260507223003 | 10 | 215 | 0.0 | 1.6 | 0.08 | 0.08 | 0.08 | 90 | 1012.2 |
| 20260507222503 | 10 | 215 | 0.0 | 3.2 | 0.08 | 0.08 | 0.08 | 90 | 1012.3 |
| 20260507222217 | 10 | 215 | 0.0 | 3.2 | 0.08 | 0.08 | 0.08 | 89 | 1012.2 |
| 20260507221503 | 10 | 215 | 1.6 | 4.8 | 0.05 | 0.05 | 0.05 | 89 | 1012.2 |
| 20260507221003 | 10 | 215 | 1.6 | 4.8 | 0.05 | 0.05 | 0.05 | 89 | 1012.1 |
| 20260507220503 | 10 | 215 | 1.6 | 4.8 | 0.00 | 0.00 | 0.00 | 89 | 1012.1 |
| 20260507220003 | 10 | 215 | 0.0 | 3.2 | 0.00 | 0.00 | 0.00 | 89 | 1012.1 |
| 20260507215503 | 10 | 215 | 0.0 | 1.6 | 0.00 | 0.00 | 0.00 | 90 | 1012.1 |
| 20260507215003 | 10 | 215 | 0.0 | 3.2 | 0.00 | 0.00 | 0.00 | 90 | 1011.9 |
| 20260507214503 | 10 | 215 | 1.6 | 3.2 | 0.00 | 0.00 | 0.00 | 90 | 1012.0 |
| 20260507214003 | 10 | 207 | 1.6 | 4.8 | 0.00 | 0.00 | 0.00 | 90 | 1011.9 |
| 20260507213503 | 10 | 174 | 1.6 | 4.8 | 0.00 | 0.00 | 0.00 | 90 | 1011.9 |
| 20260507213003 | 10 | 184 | 1.6 | 8.0 | 0.00 | 0.00 | 0.00 | 90 | 1011.9 |
| 20260507212503 | 10 | 214 | 3.2 | 9.7 | 0.00 | 0.00 | 0.00 | 90 | 1011.9 |
| 20260507212003 | 10 | 214 | 3.2 | 9.7 | 0.00 | 0.00 | 0.00 | 90 | 1011.8 |
| 20260507211503 | 10 | 213 | 4.8 | 12.9 | 0.00 | 0.00 | 0.00 | 90 | 1011.9 |
| 20260507211003 | 10 | 198 | 4.8 | 12.9 | 0.00 | 0.00 | 0.00 | 90 | 1011.8 |
| 20260507210503 | 10 | 187 | 3.2 | 9.7 | 0.00 | 0.00 | 0.00 | 90 | 1011.5 |
| 20260507210003 | 10 | 201 | 3.2 | 11.3 | 0.00 | 0.00 | 0.00 | 90 | 1011.4 |
| 20260507205503 | 10 | 193 | 3.2 | 11.3 | 0.00 | 0.00 | 0.00 | 90 | 1011.5 |
| 20260507205003 | 10 | 169 | 4.8 | 11.3 | 0.00 | 0.00 | 0.00 | 90 | 1011.4 |
| 20260507204503 | 11 | 166 | 4.8 | 11.3 | 0.00 | 0.00 | 0.00 | 90 | 1011.2 |
| 20260507204003 | 11 | 172 | 4.8 | 14.5 | 0.00 | 0.00 | 0.00 | 90 | 1011.2 |
| 20260507203717 | 11 | 172 | 4.8 | 14.5 | 0.00 | 0.00 | 0.00 | 90 | 1011.2 |
| 20260507203003 | 11 | 173 | 4.8 | 16.1 | 0.00 | 0.00 | 0.00 | 90 | 1011.2 |
| 20260507202503 | 11 | 180 | 4.8 | 16.1 | 0.00 | 0.00 | 0.00 | 90 | 1011.2 |
| 20260507202003 | 11 | 176 | 6.4 | 14.5 | 0.00 | 0.00 | 0.00 | 90 | 1011.1 |
| 20260507201503 | 11 | 170 | 6.4 | 14.5 | 0.00 | 0.00 | 0.00 | 90 | 1011.1 |
| 20260507201218 | 11 | 170 | 6.4 | 14.5 | 0.00 | 0.00 | 0.00 | 90 | 1011.1 |
| 20260507200719 | 11 | 169 | 8.0 | 19.3 | 0.00 | 0.00 | 0.00 | 90 | 1010.9 |
| 20260507200003 | 11 | 169 | 8.0 | 19.3 | 0.00 | 0.00 | 0.00 | 89 | 1010.9 |
| 20260507195503 | 11 | 171 | 8.0 | 17.7 | 0.00 | 0.00 | 0.00 | 89 | 1010.9 |
| 20260507195003 | 11 | 173 | 8.0 | 19.3 | 0.00 | 0.00 | 0.00 | 88 | 1011.0 |
| 20260507194503 | 11 | 172 | 9.7 | 19.3 | 0.00 | 0.00 | 0.00 | 88 | 1011.0 |
| 20260507194003 | 11 | 170 | 8.0 | 19.3 | 0.00 | 0.00 | 0.00 | 88 | 1011.0 |
| 20260507193717 | 11 | 167 | 6.4 | 17.7 | 0.00 | 0.00 | 0.00 | 88 | 1010.9 |
| 20260507193003 | 11 | 164 | 6.4 | 16.1 | 0.00 | 0.00 | 0.00 | 88 | 1010.9 |
| 20260507192503 | 11 | 165 | 8.0 | 17.7 | 0.00 | 0.00 | 0.00 | 87 | 1010.9 |
| 20260507192003 | 11 | 166 | 8.0 | 17.7 | 0.00 | 0.00 | 0.00 | 87 | 1010.9 |
| 20260507191717 | 11 | 165 | 8.0 | 17.7 | 0.00 | 0.00 | 0.00 | 86 | 1010.9 |
| 20260507191003 | 11 | 168 | 8.0 | 19.3 | 0.00 | 0.00 | 0.00 | 86 | 1011.0 |
| 20260507190503 | 11 | 170 | 9.7 | 19.3 | 0.00 | 0.00 | 0.00 | 85 | 1010.9 |
| 20260507190004 | 12 | 170 | 9.7 | 20.9 | 0.00 | 0.00 | 0.00 | 85 | 1011.0 |
| 20260507185716 | 12 | 169 | 9.7 | 20.9 | 0.00 | 0.00 | 0.00 | 84 | 1011.0 |
| 20260507185003 | 12 | 167 | 9.7 | 20.9 | 0.00 | 0.00 | 0.00 | 83 | 1011.0 |
| 20260507184503 | 12 | 170 | 8.0 | 19.3 | 0.00 | 0.00 | 0.00 | 83 | 1011.0 |
| 20260507184003 | 12 | 171 | 8.0 | 19.3 | 0.00 | 0.00 | 0.00 | 82 | 1011.0 |
| 20260507183503 | 12 | 167 | 8.0 | 17.7 | 0.00 | 0.00 | 0.00 | 82 | 1010.9 |
| 20260507183003 | 12 | 168 | 8.0 | 17.7 | 0.00 | 0.00 | 0.00 | 81 | 1010.9 |
| 20260507182503 | 12 | 171 | 8.0 | 22.5 | 0.00 | 0.00 | 0.00 | 81 | 1010.9 |
| 20260507182219 | 12 | 172 | 9.7 | 22.5 | 0.00 | 0.00 | 0.00 | 81 | 1010.9 |
| 20260507181503 | 12 | 167 | 8.0 | 20.9 | 0.00 | 0.00 | 0.00 | 80 | 1010.9 |
| 20260507181003 | 12 | 167 | 8.0 | 17.7 | 0.00 | 0.00 | 0.00 | 80 | 1010.9 |
| 20260507180503 | 12 | 165 | 6.4 | 19.3 | 0.00 | 0.00 | 0.00 | 80 | 1011.1 |
| 20260507180003 | 12 | 162 | 6.4 | 19.3 | 0.00 | 0.00 | 0.00 | 79 | 1011.1 |
| 20260507175716 | 12 | 165 | 6.4 | 19.3 | 0.00 | 0.00 | 0.00 | 79 | 1011.1 |
| 20260507175217 | 13 | 171 | 6.4 | 20.9 | 0.00 | 0.00 | 0.00 | 79 | 1011.0 |
| 20260507174503 | 13 | 169 | 8.0 | 19.3 | 0.00 | 0.00 | 0.00 | 79 | 1011.0 |
| 20260507174003 | 13 | 173 | 6.4 | 19.3 | 0.00 | 0.00 | 0.00 | 79 | 1011.1 |
| 20260507173503 | 13 | 173 | 6.4 | 16.1 | 0.00 | 0.00 | 0.00 | 80 | 1011.0 |
| 20260507173217 | 13 | 174 | 6.4 | 17.7 | 0.00 | 0.00 | 0.00 | 79 | 1011.2 |
| 20260507172503 | 13 | 170 | 8.0 | 19.3 | 0.00 | 0.00 | 0.00 | 79 | 1011.1 |
| 20260507172219 | 13 | 166 | 8.0 | 19.3 | 0.00 | 0.00 | 0.00 | 79 | 1011.1 |
| 20260507171503 | 13 | 165 | 8.0 | 19.3 | 0.00 | 0.00 | 0.00 | 79 | 1011.1 |
| 20260507171003 | 13 | 169 | 8.0 | 19.3 | 0.00 | 0.00 | 0.00 | 80 | 1011.1 |
| 20260507170503 | 13 | 166 | 8.0 | 17.7 | 0.00 | 0.00 | 0.00 | 80 | 1011.1 |
| 20260507170003 | 13 | 162 | 8.0 | 19.3 | 0.00 | 0.00 | 0.00 | 80 | 1011.1 |
| 20260507165504 | 13 | 169 | 8.0 | 20.9 | 0.00 | 0.00 | 0.00 | 80 | 1011.2 |
| 20260507165003 | 13 | 167 | 9.7 | 20.9 | 0.00 | 0.00 | 0.00 | 80 | 1011.2 |
| 20260507164503 | 13 | 166 | 11.3 | 22.5 | 0.00 | 0.00 | 0.00 | 79 | 1011.2 |
| 20260507164003 | 13 | 166 | 9.7 | 24.1 | 0.00 | 0.00 | 0.00 | 79 | 1011.2 |
| 20260507163503 | 13 | 164 | 9.7 | 24.1 | 0.00 | 0.00 | 0.00 | 79 | 1011.2 |
| 20260507163003 | 13 | 166 | 9.7 | 22.5 | 0.00 | 0.00 | 0.00 | 78 | 1011.2 |
| 20260507162718 | 13 | 169 | 9.7 | 22.5 | 0.00 | 0.00 | 0.00 | 78 | 1011.2 |
| 20260507162003 | 13 | 167 | 9.7 | 20.9 | 0.00 | 0.00 | 0.00 | 78 | 1011.2 |
| 20260507161503 | 13 | 168 | 9.7 | 24.1 | 0.00 | 0.00 | 0.00 | 77 | 1011.2 |
| 20260507161003 | 13 | 170 | 9.7 | 24.1 | 0.00 | 0.00 | 0.00 | 78 | 1011.1 |
| 20260507160717 | 12 | 169 | 8.0 | 19.3 | 0.00 | 0.00 | 0.00 | 79 | 1011.2 |
| 20260507160003 | 12 | 166 | 9.7 | 24.1 | 0.00 | 0.00 | 0.00 | 78 | 1011.3 |
| 20260507155719 | 12 | 166 | 9.7 | 24.1 | 0.00 | 0.00 | 0.00 | 77 | 1011.3 |
| 20260507155003 | 13 | 167 | 9.7 | 25.7 | 0.00 | 0.00 | 0.00 | 75 | 1011.3 |
| 20260507154503 | 13 | 172 | 9.7 | 25.7 | 0.00 | 0.00 | 0.00 | 73 | 1011.3 |
| 20260507154003 | 13 | 179 | 8.0 | 22.5 | 0.00 | 0.00 | 0.00 | 72 | 1011.3 |
| 20260507153504 | 13 | 173 | 9.7 | 27.4 | 0.00 | 0.00 | 0.00 | 71 | 1011.2 |
| 20260507153003 | 13 | 167 | 9.7 | 27.4 | 0.00 | 0.00 | 0.00 | 72 | 1011.2 |
| 20260507152503 | 14 | 166 | 9.7 | 24.1 | 0.00 | 0.00 | 0.00 | 72 | 1011.2 |
| 20260507152218 | 14 | 166 | 9.7 | 24.1 | 0.00 | 0.00 | 0.00 | 72 | 1011.2 |
| 20260507151504 | 15 | 163 | 8.0 | 22.5 | 0.00 | 0.00 | 0.00 | 72 | 1011.1 |
| 20260507151216 | 14 | 164 | 8.0 | 22.5 | 0.00 | 0.00 | 0.00 | 71 | 1011.2 |
| 20260507150503 | 14 | 162 | 8.0 | 17.7 | 0.00 | 0.00 | 0.00 | 68 | 1011.2 |
| 20260507150003 | 15 | 158 | 8.0 | 17.7 | 0.00 | 0.00 | 0.00 | 67 | 1011.2 |
| 20260507145503 | 15 | 155 | 6.4 | 17.7 | 0.00 | 0.00 | 0.00 | 67 | 1011.3 |
| 20260507145003 | 14 | 159 | 8.0 | 19.3 | 0.00 | 0.00 | 0.00 | 65 | 1011.3 |
| 20260507144503 | 14 | 166 | 9.7 | 19.3 | 0.00 | 0.00 | 0.00 | 64 | 1011.4 |
| 20260507144218 | 13 | 167 | 9.7 | 19.3 | 0.00 | 0.00 | 0.00 | 65 | 1011.3 |
| 20260507143503 | 14 | 170 | 9.7 | 25.7 | 0.00 | 0.00 | 0.00 | 62 | 1011.4 |
| 20260507143003 | 13 | 169 | 8.0 | 25.7 | 0.00 | 0.00 | 0.00 | 61 | 1011.6 |
| 20260507142503 | 13 | 163 | 6.4 | 16.1 | 0.00 | 0.00 | 0.00 | 66 | 1011.6 |
| 20260507142003 | 13 | 165 | 6.4 | 19.3 | 0.00 | 0.00 | 0.00 | 66 | 1011.6 |
| 20260507141503 | 13 | 165 | 8.0 | 20.9 | 0.00 | 0.00 | 0.00 | 67 | 1011.6 |
| 20260507141003 | 13 | 167 | 9.7 | 22.5 | 0.00 | 0.00 | 0.00 | 65 | 1011.6 |
| 20260507140503 | 13 | 164 | 9.7 | 22.5 | 0.00 | 0.00 | 0.00 | 66 | 1011.6 |
| 20260507140003 | 13 | 168 | 8.0 | 20.9 | 0.00 | 0.00 | 0.00 | 65 | 1011.6 |
| 20260507135503 | 13 | 174 | 8.0 | 20.9 | 0.00 | 0.00 | 0.00 | 68 | 1011.5 |
| 20260507135003 | 13 | 165 | 9.7 | 17.7 | 0.00 | 0.00 | 0.00 | 70 | 1011.6 |
| 20260507134503 | 13 | 162 | 9.7 | 22.5 | 0.00 | 0.00 | 0.00 | 70 | 1011.8 |
| 20260507134003 | 13 | 167 | 9.7 | 22.5 | 0.00 | 0.00 | 0.00 | 71 | 1011.7 |
| 20260507133504 | 13 | 166 | 9.7 | 19.3 | 0.00 | 0.00 | 0.00 | 71 | 1011.7 |
| 20260507133003 | 13 | 173 | 8.0 | 16.1 | 0.00 | 0.00 | 0.00 | 71 | 1011.6 |
| 20260507132503 | 13 | 179 | 8.0 | 30.6 | 0.00 | 0.00 | 0.00 | 71 | 1011.7 |
| 20260507132003 | 13 | 171 | 9.7 | 30.6 | 0.00 | 0.00 | 0.00 | 71 | 1011.7 |
| 20260507131718 | 13 | 175 | 9.7 | 22.5 | 0.00 | 0.00 | 0.00 | 72 | 1011.7 |
| 20260507131219 | 13 | 174 | 9.7 | 20.9 | 0.00 | 0.00 | 0.00 | 71 | 1011.6 |
| 20260507130503 | 13 | 168 | 9.7 | 24.1 | 0.00 | 0.00 | 0.00 | 71 | 1011.6 |
| 20260507130003 | 14 | 173 | 8.0 | 22.5 | 0.00 | 0.00 | 0.00 | 70 | 1011.7 |
| 20260507125503 | 15 | 177 | 8.0 | 22.5 | 0.00 | 0.00 | 0.00 | 70 | 1011.6 |
| 20260507125003 | 15 | 169 | 8.0 | 22.5 | 0.00 | 0.00 | 0.00 | 69 | 1011.8 |
| 20260507124503 | 14 | 172 | 8.0 | 19.3 | 0.00 | 0.00 | 0.00 | 72 | 1011.7 |
| 20260507124003 | 13 | 179 | 9.7 | 20.9 | 0.00 | 0.00 | 0.00 | 73 | 1011.7 |
| 20260507123718 | 13 | 175 | 9.7 | 20.9 | 0.00 | 0.00 | 0.00 | 74 | 1011.7 |
| 20260507123003 | 13 | 160 | 9.7 | 24.1 | 0.00 | 0.00 | 0.00 | 74 | 1011.7 |
| 20260507122503 | 14 | 173 | 9.7 | 24.1 | 0.00 | 0.00 | 0.00 | 73 | 1011.7 |
| 20260507122003 | 14 | 179 | 9.7 | 25.7 | 0.00 | 0.00 | 0.00 | 73 | 1011.7 |
| 20260507121718 | 14 | 177 | 11.3 | 27.4 | 0.00 | 0.00 | 0.00 | 73 | 1011.8 |
| 20260507121003 | 13 | 166 | 11.3 | 27.4 | 0.00 | 0.00 | 0.00 | 74 | 1011.9 |
| 20260507120503 | 13 | 164 | 9.7 | 25.7 | 0.00 | 0.00 | 0.00 | 76 | 1011.8 |
| 20260507120004 | 13 | 163 | 9.7 | 25.7 | 0.00 | 0.00 | 0.00 | 76 | 1011.9 |
| 20260507115503 | 13 | 168 | 9.7 | 22.5 | 0.00 | 0.00 | 0.00 | 76 | 1011.8 |
| 20260507115003 | 13 | 176 | 9.7 | 22.5 | 0.00 | 0.00 | 0.00 | 75 | 1011.7 |
| 20260507114503 | 13 | 174 | 8.0 | 24.1 | 0.00 | 0.00 | 0.00 | 71 | 1011.7 |
| 20260507114003 | 14 | 171 | 8.0 | 29.0 | 0.00 | 0.00 | 0.00 | 75 | 1011.8 |
| 20260507113503 | 15 | 173 | 9.7 | 29.0 | 0.00 | 0.00 | 0.00 | 76 | 1011.8 |
| 20260507113219 | 14 | 172 | 9.7 | 22.5 | 0.00 | 0.00 | 0.00 | 76 | 1011.8 |
| 20260507112503 | 14 | 170 | 8.0 | 17.7 | 0.00 | 0.00 | 0.00 | 76 | 1011.8 |
| 20260507112003 | 13 | 174 | 8.0 | 17.7 | 0.00 | 0.00 | 0.00 | 78 | 1011.7 |
| 20260507111504 | 13 | 170 | 8.0 | 19.3 | 0.00 | 0.00 | 0.00 | 78 | 1011.8 |
| 20260507111219 | 13 | 168 | 8.0 | 20.9 | 0.00 | 0.00 | 0.00 | 79 | 1011.8 |
| 20260507110503 | 13 | 173 | 8.0 | 20.9 | 0.00 | 0.00 | 0.00 | 80 | 1011.9 |
| 20260507110003 | 13 | 170 | 6.4 | 16.1 | 0.00 | 0.00 | 0.00 | 81 | 1011.9 |
| 20260507105503 | 13 | 163 | 4.8 | 14.5 | 0.00 | 0.00 | 0.00 | 82 | 1011.9 |
| 20260507105003 | 12 | 164 | 4.8 | 12.9 | 0.00 | 0.00 | 0.00 | 82 | 1012.0 |
| 20260507104504 | 12 | 174 | 4.8 | 11.3 | 0.00 | 0.00 | 0.00 | 82 | 1011.9 |
| 20260507104003 | 12 | 173 | 6.4 | 16.1 | 0.00 | 0.00 | 0.00 | 82 | 1011.9 |
| 20260507103503 | 12 | 168 | 6.4 | 16.1 | 0.00 | 0.00 | 0.00 | 83 | 1012.0 |
| 20260507103003 | 12 | 181 | 6.4 | 16.1 | 0.00 | 0.00 | 0.00 | 82 | 1012.0 |
| 20260507102503 | 12 | 189 | 6.4 | 16.1 | 0.00 | 0.00 | 0.00 | 83 | 1012.1 |
| 20260507102003 | 12 | 186 | 6.4 | 16.1 | 0.00 | 0.00 | 0.00 | 82 | 1012.1 |
| 20260507101503 | 12 | 190 | 4.8 | 14.5 | 0.00 | 0.00 | 0.00 | 83 | 1012.1 |
| 20260507101003 | 12 | 188 | 6.4 | 14.5 | 0.00 | 0.00 | 0.00 | 83 | 1012.1 |
| 20260507100503 | 12 | 194 | 4.8 | 14.5 | 0.00 | 0.00 | 0.00 | 83 | 1012.0 |
| 20260507100003 | 12 | 183 | 4.8 | 14.5 | 0.00 | 0.00 | 0.00 | 83 | 1012.0 |
| 20260507095503 | 12 | 184 | 4.8 | 14.5 | 0.00 | 0.00 | 0.00 | 84 | 1012.0 |
| 20260507095003 | 12 | 189 | 4.8 | 17.7 | 0.00 | 0.00 | 0.00 | 84 | 1012.0 |
| 20260507094503 | 11 | 179 | 6.4 | 17.7 | 0.00 | 0.00 | 0.00 | 84 | 1012.0 |
| 20260507094003 | 11 | 173 | 4.8 | 12.9 | 0.00 | 0.00 | 0.00 | 85 | 1012.0 |
| 20260507093503 | 11 | 189 | 4.8 | 12.9 | 0.00 | 0.00 | 0.00 | 84 | 1011.9 |
| 20260507093003 | 11 | 197 | 6.4 | 12.9 | 0.00 | 0.00 | 0.00 | 84 | 1012.0 |
| 20260507092503 | 11 | 186 | 4.8 | 12.9 | 0.00 | 0.00 | 0.00 | 84 | 1011.9 |
| 20260507092003 | 11 | 181 | 4.8 | 12.9 | 0.00 | 0.00 | 0.00 | 84 | 1012.1 |
| 20260507091503 | 11 | 175 | 4.8 | 12.9 | 0.00 | 0.00 | 0.00 | 84 | 1012.0 |
| 20260507091003 | 11 | 169 | 6.4 | 14.5 | 0.00 | 0.00 | 0.00 | 84 | 1012.1 |
| 20260507090503 | 11 | 171 | 4.8 | 14.5 | 0.00 | 0.00 | 0.00 | 84 | 1012.1 |
| 20260507090004 | 11 | 179 | 4.8 | 14.5 | 0.00 | 0.03 | 0.00 | 83 | 1012.1 |
| 20260507085503 | 11 | 181 | 4.8 | 14.5 | 0.00 | 0.03 | 0.00 | 84 | 1012.2 |
| 20260507085003 | 11 | 189 | 4.8 | 9.7 | 0.00 | 0.03 | 0.00 | 84 | 1012.0 |
| 20260507084503 | 11 | 191 | 3.2 | 9.7 | 0.00 | 0.05 | 0.00 | 85 | 1012.0 |
| 20260507084003 | 11 | 178 | 3.2 | 11.3 | 0.00 | 0.05 | 0.00 | 86 | 1012.0 |
| 20260507083717 | 10 | 180 | 4.8 | 11.3 | 0.00 | 0.05 | 0.00 | 86 | 1012.1 |
| 20260507083004 | 10 | 182 | 3.2 | 9.7 | 0.00 | 0.10 | 0.00 | 87 | 1012.0 |
| 20260507082719 | 10 | 185 | 3.2 | 11.3 | 0.00 | 0.10 | 0.00 | 88 | 1012.0 |
| 20260507082003 | 10 | 186 | 3.2 | 11.3 | 0.00 | 0.13 | 0.00 | 88 | 1012.1 |
| 20260507081503 | 10 | 178 | 3.2 | 11.3 | 0.00 | 0.15 | 0.00 | 90 | 1012.0 |
| 20260507081003 | 10 | 183 | 3.2 | 11.3 | 0.00 | 0.15 | 0.00 | 90 | 1012.0 |
| 20260507080503 | 10 | 190 | 3.2 | 11.3 | 0.00 | 0.18 | 0.00 | 91 | 1011.9 |
| 20260507080003 | 10 | 178 | 4.8 | 9.7 | 0.00 | 0.20 | 0.00 | 92 | 1012.0 |
| 20260507075503 | 10 | 179 | 3.2 | 9.7 | 0.00 | 0.20 | 0.00 | 92 | 1012.0 |
| 20260507075003 | 10 | 178 | 3.2 | 8.0 | 0.00 | 0.23 | 0.00 | 92 | 1012.0 |
| 20260507074503 | 9 | 178 | 3.2 | 8.0 | 0.00 | 0.23 | 0.00 | 93 | 1012.0 |
| 20260507074003 | 9 | 189 | 3.2 | 9.7 | 0.00 | 0.25 | 0.00 | 93 | 1011.9 |
| 20260507073716 | 9 | 187 | 3.2 | 9.7 | 0.00 | 0.28 | 0.00 | 93 | 1011.9 |
| 20260507073003 | 9 | 180 | 3.2 | 8.0 | 0.00 | 0.33 | 0.00 | 94 | 1011.9 |
| 20260507072503 | 9 | 189 | 3.2 | 11.3 | 0.00 | 0.33 | 0.00 | 94 | 1011.9 |
| 20260507072003 | 9 | 197 | 3.2 | 11.3 | 0.00 | 0.33 | 0.00 | 94 | 1011.9 |
| 20260507071504 | 8 | 192 | 3.2 | 8.0 | 0.00 | 0.33 | 0.00 | 95 | 1011.8 |
| 20260507071003 | 8 | 187 | 3.2 | 8.0 | 0.00 | 0.36 | 0.00 | 95 | 1011.9 |
| 20260507070503 | 8 | 190 | 3.2 | 8.0 | 0.00 | 0.36 | 0.00 | 96 | 1011.9 |
| 20260507070006 | 8 | 189 | 3.2 | 9.7 | 0.00 | 0.38 | 0.00 | 96 | 1011.8 |
| 20260507065503 | 8 | 177 | 3.2 | 9.7 | 0.00 | 0.38 | 0.00 | 96 | 1011.8 |
| 20260507065217 | 8 | 176 | 3.2 | 9.7 | 0.00 | 0.38 | 0.00 | 96 | 1011.8 |
| 20260507064503 | 8 | 177 | 3.2 | 11.3 | 0.00 | 0.41 | 0.00 | 96 | 1011.9 |
| 20260507064219 | 8 | 176 | 3.2 | 11.3 | 0.00 | 0.41 | 0.00 | 96 | 1011.9 |
| 20260507063503 | 8 | 170 | 4.8 | 11.3 | 0.00 | 0.41 | 0.00 | 96 | 1011.9 |
| 20260507063003 | 8 | 174 | 4.8 | 11.3 | 0.00 | 0.41 | 0.00 | 96 | 1011.8 |
| 20260507062718 | 8 | 173 | 4.8 | 11.3 | 0.00 | 0.41 | 0.00 | 96 | 1011.8 |
| 20260507062003 | 8 | 184 | 4.8 | 11.3 | 0.00 | 0.43 | 0.00 | 97 | 1011.8 |
| 20260507061503 | 8 | 190 | 3.2 | 9.7 | 0.00 | 0.43 | 0.00 | 97 | 1011.8 |
| 20260507061003 | 8 | 182 | 3.2 | 9.7 | 0.00 | 0.43 | 0.00 | 97 | 1011.8 |
| 20260507060503 | 8 | 168 | 3.2 | 8.0 | 0.00 | 0.43 | 0.00 | 97 | 1011.8 |
| 20260507060003 | 8 | 179 | 3.2 | 8.0 | 0.00 | 0.43 | 0.00 | 97 | 1011.8 |
| 20260507055716 | 8 | 190 | 3.2 | 8.0 | 0.00 | 0.43 | 0.00 | 97 | 1011.8 |
| 20260507055217 | 8 | 198 | 3.2 | 8.0 | 0.00 | 0.43 | 0.00 | 97 | 1011.7 |
| 20260507054503 | 8 | 192 | 3.2 | 9.7 | 0.00 | 0.43 | 0.00 | 97 | 1011.6 |
| 20260507054003 | 8 | 185 | 3.2 | 9.7 | 0.00 | 0.43 | 0.00 | 97 | 1011.6 |
| 20260507053715 | 8 | 178 | 3.2 | 9.7 | 0.00 | 0.43 | 0.00 | 97 | 1011.7 |
| 20260507053003 | 8 | 179 | 3.2 | 9.7 | 0.00 | 0.46 | 0.00 | 97 | 1011.6 |
| 20260507052503 | 8 | 189 | 3.2 | 9.7 | 0.00 | 0.46 | 0.00 | 97 | 1011.7 |
| 20260507052003 | 8 | 178 | 3.2 | 8.0 | 0.00 | 0.46 | 0.00 | 97 | 1011.6 |
| 20260507051503 | 8 | 173 | 3.2 | 8.0 | 0.00 | 0.46 | 0.00 | 98 | 1011.7 |
| 20260507051003 | 8 | 186 | 3.2 | 8.0 | 0.00 | 0.46 | 0.00 | 98 | 1011.7 |
| 20260507050503 | 8 | 193 | 3.2 | 8.0 | 0.00 | 0.46 | 0.00 | 98 | 1011.6 |
| 20260507050218 | 8 | 194 | 3.2 | 8.0 | 0.00 | 0.46 | 0.00 | 98 | 1011.7 |
| 20260507045719 | 8 | 189 | 3.2 | 8.0 | 0.00 | 0.46 | 0.00 | 98 | 1011.6 |
| 20260507045003 | 8 | 174 | 3.2 | 6.4 | 0.00 | 0.46 | 0.00 | 98 | 1011.5 |
| 20260507044503 | 8 | 170 | 1.6 | 6.4 | 0.00 | 0.46 | 0.00 | 98 | 1011.6 |
| 20260507044003 | 7 | 170 | 1.6 | 6.4 | 0.00 | 0.46 | 0.00 | 98 | 1011.5 |
| 20260507043503 | 7 | 171 | 1.6 | 8.0 | 0.00 | 0.46 | 0.00 | 98 | 1011.4 |
| 20260507043003 | 7 | 165 | 1.6 | 8.0 | 0.00 | 0.46 | 0.00 | 97 | 1011.5 |
| 20260507042503 | 7 | 167 | 1.6 | 6.4 | 0.00 | 0.46 | 0.00 | 97 | 1011.4 |
| 20260507042218 | 7 | 168 | 3.2 | 8.0 | 0.00 | 0.46 | 0.00 | 97 | 1011.4 |
| 20260507041503 | 7 | 172 | 3.2 | 8.0 | 0.00 | 0.46 | 0.00 | 97 | 1011.4 |
| 20260507041003 | 7 | 175 | 1.6 | 4.8 | 0.00 | 0.46 | 0.00 | 97 | 1011.3 |
| 20260507040503 | 7 | 173 | 1.6 | 6.4 | 0.00 | 0.46 | 0.00 | 97 | 1011.4 |
| 20260507040003 | 7 | 176 | 1.6 | 6.4 | 0.00 | 0.46 | 0.00 | 97 | 1011.4 |
| 20260507035503 | 7 | 174 | 1.6 | 6.4 | 0.00 | 0.46 | 0.00 | 97 | 1011.4 |
| 20260507035003 | 7 | 173 | 1.6 | 9.7 | 0.00 | 0.46 | 0.00 | 97 | 1011.4 |
| 20260507034717 | 8 | 185 | 3.2 | 9.7 | 0.00 | 0.46 | 0.00 | 97 | 1011.4 |